Weather History for Marfa, TX

Change the Weather History Date:

Friday, March 28, 2014

  Actual Average Record
Temperature  
Mean Temperature 56 °F -  
Max Temperature 69 °F 69 °F 82 °F (2011)
Min Temperature 41 °F 37 °F 17 °F (2009)
Degree Days  
Heating Degree Days 10    
Growing Degree Days 6 (Base 50)    
Moisture  
Dew Point 20 °F    
Average Humidity 25    
Maximum Humidity 43    
Minimum Humidity 16    
Precipitation  
Precipitation 0.00 in - - ()
Sea Level Pressure  
Sea Level Pressure 30.08 in    
Wind  
Wind Speed 12 mph (WNW)    
Max Wind Speed 28 mph    
Max Gust Speed 33 mph    
Visibility 10 miles    
Events      
Averages and records for this station are not official NWS values.
T = Trace of Precipitation, MM = Missing Value Source: NWS Daily Summary

Daily Weather History Graph

Daily Weather History Graph

Search for Another Location

Airport:

Trip Planner

Search our weather history database for the weather conditions in past years. The results will help you decide how hot, cold, wet, or windy it might be!

Date:

Astronomy

Mar. 28, 2014 Rise Set
Actual Time 7:49 AM CDT 8:12 PM CDT
Civil Twilight 7:25 AM CDT 8:36 PM CDT
Nautical Twilight 6:57 AM CDT 9:04 PM CDT
Astronomical Twilight 6:29 AM CDT 9:33 PM CDT
Moon 6:13 AM CDT (3/28) 6:18 PM CDT (3/28)
Length of Visible Light 13h 10m
Length of Day
12h 22m
Waning Crescent, 6% of the Moon is Illuminated
Mar 28
Waning Crescent
Mar 30
New
Apr 7
First Quarter
Apr 15
Full
Apr 22
Last Quarter

Hourly Weather History & Observations

Time (CDT) Temp. Windchill Dew Point Humidity Pressure Visibility Wind Dir Wind Speed Gust Speed Precip Events Conditions
12:15 AM 55.4 °F - 12.2 °F 18% 29.95 in 10.0 mi WNW 8.1 mph - N/A   Clear
12:35 AM 48.2 °F - 10.4 °F 22% 29.96 in 10.0 mi NNW 9.2 mph - N/A   Clear
12:55 AM 46.4 °F 41.9 °F 10.4 °F 23% 29.96 in 10.0 mi NNW 9.2 mph - N/A   Clear
1:15 AM 48.2 °F - 12.2 °F 24% 29.96 in 10.0 mi North 8.1 mph - N/A   Clear
1:35 AM 46.4 °F 41.9 °F 12.2 °F 25% 29.97 in 10.0 mi NNW 9.2 mph - N/A   Clear
1:55 AM 48.2 °F - 14.0 °F 25% 29.97 in 10.0 mi NNW 10.4 mph - N/A   Clear
2:15 AM 50.0 °F - 15.8 °F 26% 29.97 in 10.0 mi NW 10.4 mph - N/A   Clear
2:35 AM 53.6 °F - 17.6 °F 24% 29.97 in 10.0 mi NW 9.2 mph - N/A   Clear
2:55 AM 51.8 °F - 15.8 °F 24% 29.97 in 10.0 mi NW 8.1 mph - N/A   Clear
3:15 AM 48.2 °F - 15.8 °F 27% 29.97 in 10.0 mi NW 9.2 mph - N/A   Clear
3:35 AM 46.4 °F 42.4 °F 15.8 °F 29% 29.97 in 10.0 mi NNW 8.1 mph - N/A   Clear
3:55 AM 46.4 °F 42.4 °F 15.8 °F 29% 29.97 in 10.0 mi NNW 8.1 mph - N/A   Clear
4:15 AM 44.6 °F 43.1 °F 15.8 °F 31% 29.97 in 10.0 mi WNW 3.5 mph - N/A   Clear
4:35 AM 48.2 °F - 19.4 °F 32% 29.97 in 10.0 mi WNW 6.9 mph - N/A   Clear
4:55 AM 51.8 °F - 17.6 °F 26% 29.97 in 10.0 mi NW 4.6 mph - N/A   Clear
5:15 AM 46.4 °F 41.1 °F 15.8 °F 29% 29.98 in 10.0 mi NW 11.5 mph - N/A   Clear
5:35 AM 46.4 °F 41.5 °F 15.8 °F 29% 29.98 in 10.0 mi NW 10.4 mph - N/A   Clear
5:55 AM 48.2 °F - 19.4 °F 32% 29.99 in 10.0 mi NW 10.4 mph - N/A   Clear
6:15 AM 42.8 °F 37.0 °F 15.8 °F 34% 30.00 in 10.0 mi NW 10.4 mph - N/A   Clear
6:35 AM 44.6 °F 39.7 °F 17.6 °F 34% 30.01 in 10.0 mi WNW 9.2 mph - N/A   Clear
6:55 AM 46.4 °F 42.4 °F 21.2 °F 37% 30.02 in 10.0 mi WNW 8.1 mph - N/A   Clear
7:15 AM 42.8 °F 38.6 °F 21.2 °F 42% 30.03 in 10.0 mi NW 6.9 mph - N/A   Clear
7:35 AM 44.6 °F 38.8 °F 21.2 °F 39% 30.03 in 10.0 mi NW 11.5 mph - N/A   Clear
7:55 AM 46.4 °F 41.1 °F 23.0 °F 40% 30.04 in 10.0 mi WNW 11.5 mph - N/A   Clear
8:15 AM 46.4 °F 41.5 °F 24.8 °F 43% 30.05 in 10.0 mi WNW 10.4 mph - N/A   Clear
8:35 AM 48.2 °F - 26.6 °F 43% 30.07 in 10.0 mi WNW 11.5 mph - N/A   Clear
8:55 AM 53.6 °F - 26.6 °F 35% 30.07 in 10.0 mi West 12.7 mph - N/A   Clear
9:15 AM 57.2 °F - 28.4 °F 33% 30.07 in 10.0 mi West 17.3 mph - N/A   Clear
9:35 AM 59.0 °F - 28.4 °F 31% 30.08 in 10.0 mi WNW 19.6 mph 26.5 mph N/A   Clear
9:55 AM 60.8 °F - 28.4 °F 29% 30.10 in 10.0 mi WNW 20.7 mph 25.3 mph N/A   Clear
10:15 AM 60.8 °F - 28.4 °F 29% 30.11 in 10.0 mi NW 23.0 mph - N/A   Clear
10:35 AM 60.8 °F - 28.4 °F 29% 30.11 in 10.0 mi WNW 21.9 mph 26.5 mph N/A   Clear
10:55 AM 62.6 °F - 28.4 °F 27% 30.11 in 10.0 mi WNW 19.6 mph 23.0 mph N/A   Clear
11:15 AM 62.6 °F - 26.6 °F 26% 30.12 in 10.0 mi West 27.6 mph 31.1 mph N/A   Clear
11:35 AM 64.4 °F - 26.6 °F 24% 30.13 in 10.0 mi West 21.9 mph 29.9 mph N/A   Clear
11:55 AM 64.4 °F - 26.6 °F 24% 30.14 in 10.0 mi West 21.9 mph 29.9 mph N/A   Clear
12:15 PM 66.2 °F - 26.6 °F 23% 30.13 in 10.0 mi West 19.6 mph 29.9 mph N/A   Clear
12:35 PM 66.2 °F - 26.6 °F 23% 30.14 in 10.0 mi West 18.4 mph 25.3 mph N/A   Clear
12:55 PM 66.2 °F - 26.6 °F 23% 30.14 in 10.0 mi West 25.3 mph 31.1 mph N/A   Partly Cloudy
1:15 PM 66.2 °F - 24.8 °F 21% 30.14 in 10.0 mi West 18.4 mph 33.4 mph N/A   Clear
1:35 PM 66.2 °F - 24.8 °F 21% 30.13 in 10.0 mi West 24.2 mph 31.1 mph N/A   Clear
1:55 PM 68.0 °F - 24.8 °F 20% 30.12 in 10.0 mi West 23.0 mph 31.1 mph N/A   Clear
2:15 PM 66.2 °F - 24.8 °F 21% 30.13 in 10.0 mi West 25.3 mph 33.4 mph N/A   Clear
2:35 PM 68.0 °F - 23.0 °F 18% 30.13 in 10.0 mi WNW 18.4 mph 28.8 mph N/A   Clear
2:55 PM 68.0 °F - 21.2 °F 17% 30.12 in 10.0 mi West 21.9 mph 28.8 mph N/A   Clear
3:15 PM 69.8 °F - 23.0 °F 17% 30.12 in 10.0 mi West 21.9 mph 28.8 mph N/A   Clear
3:35 PM 69.8 °F - 21.2 °F 16% 30.12 in 10.0 mi West 24.2 mph 28.8 mph N/A   Clear
3:55 PM 69.8 °F - 23.0 °F 17% 30.11 in 10.0 mi West 18.4 mph 27.6 mph N/A   Clear
4:15 PM 69.8 °F - 24.8 °F 18% 30.10 in 10.0 mi West 20.7 mph 28.8 mph N/A   Clear
4:35 PM 69.8 °F - 21.2 °F 16% 30.10 in 10.0 mi WNW 19.6 mph 29.9 mph N/A   Clear
4:55 PM 69.8 °F - 21.2 °F 16% 30.10 in 10.0 mi West 16.1 mph 27.6 mph N/A   Clear
5:15 PM 69.8 °F - 21.2 °F 16% 30.10 in 10.0 mi WNW 17.3 mph 27.6 mph N/A   Clear
5:35 PM 69.8 °F - 21.2 °F 16% 30.10 in 10.0 mi WNW 18.4 mph 28.8 mph N/A   Clear
5:55 PM 69.8 °F - 21.2 °F 16% 30.10 in 10.0 mi WNW 18.4 mph 23.0 mph N/A   Clear
6:15 PM 68.0 °F - 19.4 °F 16% 30.10 in 10.0 mi WNW 19.6 mph 24.2 mph N/A   Clear
6:35 PM 68.0 °F - 21.2 °F 17% 30.10 in 10.0 mi WNW 16.1 mph 20.7 mph N/A   Clear
6:55 PM 68.0 °F - 19.4 °F 16% 30.10 in 10.0 mi WNW 11.5 mph 23.0 mph N/A   Clear
7:15 PM 66.2 °F - 19.4 °F 17% 30.11 in 10.0 mi West 13.8 mph - N/A   Clear
7:35 PM 66.2 °F - 19.4 °F 17% 30.11 in 10.0 mi West 12.7 mph 21.9 mph N/A   Clear
7:55 PM 64.4 °F - 17.6 °F 16% 30.12 in 10.0 mi West 9.2 mph - N/A   Clear
8:15 PM 62.6 °F - 17.6 °F 18% 30.13 in 10.0 mi West 9.2 mph - N/A   Clear
8:35 PM 57.2 °F - 17.6 °F 21% 30.14 in 10.0 mi WNW 8.1 mph - N/A   Clear
8:55 PM 53.6 °F - 15.8 °F 22% 30.15 in 10.0 mi NW 6.9 mph - N/A   Clear
9:15 PM 51.8 °F - 15.8 °F 24% 30.16 in 10.0 mi NW 8.1 mph - N/A   Clear
9:35 PM 48.2 °F - 14.0 °F 25% 30.18 in 10.0 mi NW 5.8 mph - N/A   Clear
9:55 PM 48.2 °F - 15.8 °F 27% 30.19 in 10.0 mi NNW 6.9 mph - N/A   Clear
10:15 PM 44.6 °F 41.4 °F 12.2 °F 27% 30.20 in 10.0 mi North 5.8 mph - N/A   Clear
10:35 PM 42.8 °F 40.1 °F 12.2 °F 29% 30.20 in 10.0 mi NNE 4.6 mph - N/A   Clear
10:55 PM 42.8 °F 41.1 °F 12.2 °F 29% 30.21 in 10.0 mi NE 3.5 mph - N/A   Clear
11:15 PM 42.8 °F 40.1 °F 14.0 °F 31% 30.21 in 10.0 mi NNE 4.6 mph - N/A   Clear
11:35 PM 42.8 °F 40.1 °F 12.2 °F 29% 30.22 in 10.0 mi NW 4.6 mph - N/A   Clear
11:55 PM 41.0 °F 37.1 °F 12.2 °F 31% 30.22 in 10.0 mi NNW 5.8 mph - N/A   Clear